Terug naar catalogus

STARLINK-33549

ActiefCommunicatieVLEO
NORAD 62289·PAYLOAD·🇺🇸 United States

Gelanceerd Dec 8, 2024 vanaf Cape Canaveral Space Force Station

Loading…

Volgende Passages (komende 24 uur)

TLE

VersSource: CelesTrak SupGP

Epoch: Sep 15, 2026, 03:08 UTC

1 62289C 24237Y   26258.13104167 -.00027905  00000+0 -10110-2 0  2588
2 62289  42.9994 226.6805 0001245 267.4126  47.2517 15.27585226    15

Volg STARLINK-33549 in realtime met AllMySat

Download on the App Store